Location: Monrovia
(34.7865°N, 86.7139°W)
Time: 21:59:17
(UTC+00:00)

SEDSat Delta rocket - Pass Details

Date: 14 July 2020
Orbit: 533 x 1000 km, 31.4° (Epoch: 08 August)

Event Time Altitude Azimuth Distance (km) Brightness Sun altitude
Rises 01:42:16 0° 234° (SW) 3,053 6.9 -8.1°
Reaches altitude 10° 01:44:40 10° 226° (SW) 2,213 6.1 -8.5°
Maximum altitude 01:49:30 37° 159° (SSE) 1,214 4.2 -9.3°
Drops below altitude 10° 01:54:59 10° 94° (E) 2,518 5.7 -10.2°
Enters shadow 01:55:46 - 91° (E) 2,788 5.9 -10.4°
